| time (UTC) | temp C | wind direction | speed KPH | gust KPH | rain 1hr cm | rain 24hr cm | rain mn cm | humidity % | barometer mb |
| 20260831213006 | 23 | 241 | 3.2 | 12.9 | 0.00 | 0.00 | 0.00 | 35 | 1010.6 |
| 20260831211505 | 23 | 340 | 6.4 | 14.5 | 0.00 | 0.00 | 0.00 | 34 | 1010.8 |
| 20260831210006 | 23 | 197 | 3.2 | 14.5 | 0.00 | 0.00 | 0.00 | 35 | 1010.7 |
| 20260831204504 | 23 | 302 | 8.0 | 17.7 | 0.00 | 0.00 | 0.00 | 35 | 1010.9 |
| 20260831203002 | 23 | 220 | 8.0 | 17.7 | 0.00 | 0.00 | 0.00 | 36 | 1011.1 |
| 20260831201505 | 23 | 248 | 8.0 | 17.7 | 0.00 | 0.00 | 0.00 | 36 | 1011.2 |
| 20260831200105 | 23 | 232 | 6.4 | 19.3 | 0.00 | 0.00 | 0.00 | 36 | 1011.1 |
| 20260831194557 | 22 | 228 | 8.0 | 14.5 | 0.00 | 0.00 | 0.00 | 37 | 1011.2 |
| 20260831193055 | 21 | 207 | 3.2 | 14.5 | 0.00 | 0.00 | 0.00 | 40 | 1011.4 |
| 20260831191554 | 22 | 296 | 4.8 | 16.1 | 0.00 | 0.00 | 0.00 | 41 | 1011.5 |
| 20260831190111 | 21 | 306 | 6.4 | 22.5 | 0.00 | 0.00 | 0.00 | 40 | 1011.9 |
| 20260831184555 | 21 | 325 | 8.0 | 19.3 | 0.00 | 0.00 | 0.00 | 40 | 1012.0 |
| 20260831183059 | 21 | 327 | 8.0 | 17.7 | 0.00 | 0.00 | 0.00 | 40 | 1012.2 |
| 20260831181550 | 21 | 293 | 8.0 | 17.7 | 0.00 | 0.00 | 0.00 | 42 | 1012.3 |
| 20260831180047 | 21 | 355 | 6.4 | 16.1 | 0.00 | 0.00 | 0.00 | 43 | 1012.5 |
| 20260831174545 | 20 | 306 | 9.7 | 24.1 | 0.00 | 0.00 | 0.00 | 44 | 1012.4 |
| 20260831173042 | 20 | 315 | 4.8 | 19.3 | 0.00 | 0.00 | 0.00 | 46 | 1012.4 |
| 20260831171543 | 20 | 332 | 8.0 | 27.4 | 0.00 | 0.00 | 0.00 | 46 | 1012.3 |
| 20260831170038 | 20 | 315 | 8.0 | 25.7 | 0.00 | 0.00 | 0.00 | 46 | 1012.4 |
| 20260831164538 | 20 | 333 | 9.7 | 19.3 | 0.00 | 0.00 | 0.00 | 47 | 1012.4 |
| 20260831163041 | 19 | 327 | 8.0 | 20.9 | 0.00 | 0.00 | 0.00 | 50 | 1012.3 |
| 20260831161533 | 18 | 308 | 8.0 | 22.5 | 0.00 | 0.00 | 0.00 | 53 | 1012.5 |
| 20260831160038 | 18 | 297 | 8.0 | 22.5 | 0.00 | 0.00 | 0.00 | 53 | 1012.3 |
| 20260831154533 | 18 | 333 | 9.7 | 22.5 | 0.00 | 0.00 | 0.00 | 51 | 1012.3 |
| 20260831153032 | 18 | 306 | 9.7 | 20.9 | 0.00 | 0.00 | 0.00 | 51 | 1012.4 |
| 20260831151525 | 17 | 305 | 6.4 | 20.9 | 0.00 | 0.00 | 0.00 | 50 | 1012.2 |
| 20260831150024 | 17 | 297 | 6.4 | 17.7 | 0.00 | 0.00 | 0.00 | 50 | 1012.1 |
| 20260831144521 | 16 | 302 | 8.0 | 17.7 | 0.00 | 0.00 | 0.00 | 53 | 1011.9 |
| 20260831143021 | 15 | 281 | 6.4 | 16.1 | 0.00 | 0.00 | 0.00 | 55 | 1011.8 |
| 20260831141508 | 14 | 288 | 8.0 | 19.3 | 0.00 | 0.00 | 0.00 | 57 | 1011.6 |
| 20260831140004 | 13 | 295 | 3.2 | 11.3 | 0.00 | 0.00 | 0.00 | 59 | 1011.4 |
| 20260831134505 | 13 | 277 | 4.8 | 14.5 | 0.00 | 0.00 | 0.00 | 59 | 1011.3 |
| 20260831133059 | 12 | 287 | 6.4 | 12.9 | 0.00 | 0.00 | 0.00 | 62 | 1011.0 |
| 20260831131600 | 11 | 287 | 8.0 | 19.3 | 0.00 | 0.00 | 0.00 | 64 | 1010.8 |
| 20260831124557 | 11 | 296 | 8.0 | 19.3 | 0.00 | 0.00 | 0.00 | 64 | 1010.4 |
| 20260831123051 | 11 | 290 | 8.0 | 19.3 | 0.00 | 0.00 | 0.00 | 63 | 1010.1 |
| 20260831121552 | 11 | 298 | 9.7 | 22.5 | 0.00 | 0.00 | 0.00 | 62 | 1010.0 |
| 20260831120056 | 11 | 303 | 11.3 | 22.5 | 0.00 | 0.00 | 0.00 | 63 | 1009.9 |
| 20260831114549 | 11 | 288 | 14.5 | 24.1 | 0.00 | 0.00 | 0.00 | 63 | 1010.0 |
| 20260831113107 | 12 | 260 | 9.7 | 22.5 | 0.00 | 0.00 | 0.00 | 62 | 1009.9 |
| 20260831111546 | 12 | 267 | 11.3 | 22.5 | 0.00 | 0.00 | 0.00 | 61 | 1009.7 |
| 20260831110046 | 12 | 282 | 12.9 | 27.4 | 0.00 | 0.00 | 0.00 | 62 | 1009.5 |
| 20260831104544 | 11 | 255 | 11.3 | 25.7 | 0.00 | 0.00 | 0.00 | 63 | 1009.5 |
| 20260831103048 | 11 | 302 | 12.9 | 22.5 | 0.00 | 0.00 | 0.00 | 65 | 1009.2 |
| 20260831101545 | 11 | 254 | 8.0 | 19.3 | 0.00 | 0.00 | 0.00 | 66 | 1009.2 |
| 20260831100040 | 10 | 284 | 8.0 | 19.3 | 0.00 | 0.00 | 0.00 | 67 | 1009.0 |
| 20260831094549 | 10 | 260 | 8.0 | 19.3 | 0.00 | 0.00 | 0.00 | 68 | 1008.9 |
| 20260831093035 | 10 | 231 | 6.4 | 12.9 | 0.00 | 0.00 | 0.00 | 68 | 1009.0 |
| 20260831091543 | 10 | 271 | 6.4 | 12.9 | 0.00 | 0.00 | 0.00 | 68 | 1009.1 |
| 20260831090038 | 10 | 256 | 6.4 | 19.3 | 0.00 | 0.00 | 0.00 | 67 | 1009.0 |
| 20260831084532 | 10 | 228 | 6.4 | 14.5 | 0.00 | 0.03 | 0.00 | 69 | 1008.8 |
| 20260831083024 | 10 | 239 | 6.4 | 14.5 | 0.00 | 0.03 | 0.00 | 68 | 1008.7 |
| 20260831081523 | 11 | 258 | 6.4 | 17.7 | 0.00 | 0.03 | 0.00 | 67 | 1008.4 |
| 20260831080030 | 11 | 257 | 9.7 | 22.5 | 0.00 | 0.03 | 0.00 | 67 | 1008.3 |
| 20260831074517 | 10 | 297 | 9.7 | 22.5 | 0.00 | 0.05 | 0.00 | 68 | 1008.2 |
| 20260831073015 | 11 | 263 | 6.4 | 17.7 | 0.00 | 0.05 | 0.00 | 67 | 1008.2 |
| 20260831071512 | 11 | 261 | 6.4 | 17.7 | 0.00 | 0.05 | 0.00 | 65 | 1008.2 |
| 20260831070012 | 11 | 261 | 8.0 | 17.7 | 0.00 | 0.05 | 0.00 | 64 | 1008.2 |
| 20260831064506 | 12 | 297 | 8.0 | 22.5 | 0.00 | 0.05 | 0.00 | 63 | 1008.2 |
| 20260831063004 | 12 | 286 | 9.7 | 22.5 | 0.00 | 0.05 | 0.00 | 61 | 1008.0 |
| 20260831061605 | 12 | 223 | 12.9 | 27.4 | 0.00 | 0.05 | 0.00 | 60 | 1008.1 |
| 20260831060057 | 12 | 277 | 8.0 | 19.3 | 0.00 | 0.05 | 0.00 | 60 | 1007.9 |
| 20260831054554 | 13 | 270 | 8.0 | 19.3 | 0.00 | 0.05 | 0.05 | 60 | 1007.9 |
| 20260831053053 | 13 | 265 | 6.4 | 22.5 | 0.00 | 0.05 | 0.05 | 59 | 1007.9 |
| 20260831051559 | 13 | 284 | 11.3 | 24.1 | 0.00 | 0.05 | 0.05 | 60 | 1007.9 |
| 20260831050050 | 13 | 284 | 6.4 | 22.5 | 0.00 | 0.05 | 0.05 | 60 | 1008.0 |
| 20260831044551 | 13 | 242 | 11.3 | 27.4 | 0.00 | 0.05 | 0.05 | 58 | 1008.2 |
| 20260831043046 | 14 | 261 | 11.3 | 25.7 | 0.00 | 0.05 | 0.05 | 54 | 1008.1 |
| 20260831041551 | 15 | 275 | 11.3 | 25.7 | 0.00 | 0.05 | 0.05 | 48 | 1007.5 |
| 20260831040046 | 15 | 290 | 9.7 | 24.1 | 0.00 | 0.05 | 0.05 | 48 | 1007.7 |
| 20260831034549 | 15 | 286 | 4.8 | 22.5 | 0.00 | 0.05 | 0.05 | 48 | 1007.9 |
| 20260831033044 | 15 | 323 | 11.3 | 27.4 | 0.00 | 0.05 | 0.05 | 47 | 1007.9 |
| 20260831031544 | 15 | 267 | 11.3 | 20.9 | 0.00 | 0.05 | 0.05 | 48 | 1007.7 |
| 20260831030044 | 15 | 236 | 11.3 | 24.1 | 0.00 | 0.05 | 0.05 | 48 | 1007.6 |
| 20260831024544 | 15 | 270 | 8.0 | 20.9 | 0.00 | 0.05 | 0.05 | 47 | 1007.4 |
| 20260831023042 | 15 | 330 | 12.9 | 30.6 | 0.00 | 0.05 | 0.05 | 46 | 1007.2 |
| 20260831021542 | 16 | 269 | 9.7 | 30.6 | 0.00 | 0.05 | 0.05 | 46 | 1007.0 |
| 20260831020047 | 15 | 239 | 11.3 | 25.7 | 0.00 | 0.05 | 0.05 | 48 | 1007.1 |
| 20260831014542 | 15 | 261 | 8.0 | 17.7 | 0.00 | 0.05 | 0.05 | 51 | 1006.8 |
| 20260831013046 | 16 | 266 | 9.7 | 20.9 | 0.00 | 0.05 | 0.05 | 49 | 1006.8 |
| 20260831011545 | 16 | 261 | 8.0 | 20.9 | 0.00 | 0.05 | 0.05 | 51 | 1007.0 |
| 20260831010043 | 16 | 323 | 12.9 | 27.4 | 0.00 | 0.05 | 0.05 | 49 | 1007.0 |
| 20260831004540 | 16 | 273 | 16.1 | 35.4 | 0.00 | 0.05 | 0.05 | 47 | 1007.1 |
| 20260831003041 | 17 | 263 | 16.1 | 29.0 | 0.00 | 0.05 | 0.05 | 45 | 1007.0 |
| 20260831001538 | 17 | 284 | 19.3 | 35.4 | 0.00 | 0.05 | 0.05 | 41 | 1006.8 |
| 20260831000038 | 17 | 288 | 16.1 | 37.0 | 0.00 | 0.05 | 0.05 | 39 | 1006.5 |
| 20260830234542 | 19 | 273 | 14.5 | 33.8 | 0.00 | 0.05 | 0.05 | 37 | 1006.4 |
| 20260830233037 | 19 | 241 | 16.1 | 35.4 | 0.00 | 0.05 | 0.05 | 37 | 1006.2 |
| 20260830231537 | 18 | 261 | 11.3 | 22.5 | 0.00 | 0.05 | 0.05 | 41 | 1006.3 |
| 20260830230036 | 17 | 242 | 14.5 | 27.4 | 0.00 | 0.05 | 0.05 | 42 | 1006.6 |
| 20260830224536 | 17 | 256 | 17.7 | 33.8 | 0.00 | 0.05 | 0.05 | 42 | 1006.7 |
| 20260830223036 | 17 | 201 | 16.1 | 29.0 | 0.00 | 0.05 | 0.05 | 41 | 1006.8 |
| 20260830221544 | 17 | 217 | 14.5 | 29.0 | 0.00 | 0.05 | 0.05 | 42 | 1006.8 |
| 20260830220035 | 17 | 294 | 12.9 | 30.6 | 0.00 | 0.05 | 0.05 | 42 | 1006.9 |
| 20260830214534 | 18 | 256 | 16.1 | 37.0 | 0.00 | 0.05 | 0.05 | 39 | 1006.8 |